FW2982 Weather Reports


Display with metric or nautical units.
time (UTC)temp
F
wind
direction
speed
MPH
gust
MPH
rain 1hr
in
rain 24hr
in
rain mn
in
humidity
%
barometer
mb
20260831025731 70 92 0.0 0.0 0.00 0.50 0.50 95 1017.1
20260831025231 70 92 0.0 0.0 0.00 0.50 0.50 95 1017.2
20260831024731 70 92 0.0 0.0 0.00 0.50 0.50 95 1017.2
20260831024233 70 92 0.0 0.0 0.01 0.50 0.50 95 1017.2
20260831023731 70 92 0.0 0.0 0.01 0.50 0.50 95 1017.3
20260831023232 70 92 0.0 0.0 0.02 0.50 0.50 95 1017.5
20260831022731 70 92 0.0 0.0 0.02 0.50 0.50 95 1017.4
20260831022513 70 92 0.0 0.0 0.03 0.50 0.50 95 1017.5
20260831021731 70 92 0.0 0.0 0.04 0.50 0.50 95 1017.5
20260831021232 70 92 0.0 0.0 0.04 0.50 0.50 95 1017.4
20260831021011 70 92 0.0 0.0 0.05 0.50 0.50 95 1017.4
20260831020231 71 92 0.0 1.0 0.06 0.50 0.50 95 1017.6
20260831015732 71 92 0.0 1.0 0.07 0.43 0.50 95 1017.6
20260831015232 71 92 0.0 0.0 0.08 0.43 0.50 95 1017.5
20260831015013 71 92 0.0 0.0 0.10 0.43 0.50 95 1017.5
20260831014511 71 92 0.0 0.0 0.10 0.43 0.49 95 1017.5
20260831013708 71 92 0.0 0.0 0.12 0.43 0.49 95 1017.6
20260831013208 71 92 0.0 1.0 0.12 0.43 0.48 95 1017.5
20260831012946 71 92 0.0 1.0 0.14 0.43 0.48 95 1017.5
20260831012445 71 92 0.0 1.0 0.15 0.43 0.47 95 1017.6
20260831011704 71 92 0.0 0.0 0.16 0.43 0.46 95 1017.5
20260831011203 71 92 0.0 0.0 0.19 0.43 0.45 95 1017.4
20260831010941 71 92 0.0 0.0 0.21 0.43 0.44 95 1017.4
20260831010203 71 92 0.0 0.0 0.23 0.43 0.44 95 1017.2
20260831005942 71 92 0.0 0.0 0.25 0.20 0.42 94 1017.1
20260831005441 71 92 0.0 0.0 0.28 0.20 0.41 94 1017.1
20260831004703 72 92 0.0 0.0 0.30 0.20 0.40 94 1017.0
20260831004203 72 92 0.0 0.0 0.33 0.20 0.38 94 1017.0
20260831003702 72 92 0.0 0.0 0.35 0.20 0.37 94 1017.0
20260831003202 72 92 0.0 2.0 0.36 0.20 0.35 94 1017.0
20260831002705 72 92 0.0 2.0 0.34 0.20 0.33 94 1017.0
20260831002201 71 92 0.0 1.0 0.32 0.20 0.31 94 1017.0
20260831001702 72 92 0.0 2.0 0.30 0.20 0.29 94 1017.0
20260831001203 72 92 0.0 2.0 0.27 0.20 0.26 93 1017.0
20260831000703 71 92 0.0 3.0 0.24 0.20 0.23 93 1017.0
20260831000203 71 92 1.0 7.0 0.21 0.20 0.21 92 1017.0
20260830235703 72 79 1.0 7.0 0.17 0.00 0.16 92 1017.2
20260830235249 74 262 1.0 5.0 0.05 0.00 0.05 88 1018.5
20260830235235 72 72 3.0 7.0 0.14 0.00 0.13 91 1017.7
20260830234958 73 59 2.0 4.0 0.10 0.00 0.09 90 1018.3
20260830233702 75 266 2.0 12.0 0.02 0.00 0.02 85 1018.0
20260830233202 77 288 4.0 12.0 0.00 0.00 0.00 83 1017.8
20260830232703 78 326 2.0 3.0 0.00 0.00 0.00 83 1017.6
20260830232203 78 326 1.0 2.0 0.00 0.00 0.00 83 1017.1
20260830231703 78 47 0.0 1.0 0.00 0.00 0.00 82 1016.9
20260830231441 78 47 0.0 1.0 0.00 0.00 0.00 82 1016.7
20260830230640 78 45 0.0 2.0 0.00 0.00 0.00 83 1016.7
20260830230417 78 47 0.0 2.0 0.00 0.00 0.00 83 1016.7
20260830225639 79 44 0.0 4.0 0.00 0.00 0.00 81 1016.6
20260830225138 79 44 1.0 4.0 0.00 0.00 0.00 80 1016.6
20260830224635 79 25 0.0 3.0 0.00 0.00 0.00 81 1016.6
20260830224139 80 86 0.0 5.0 0.00 0.00 0.00 80 1016.6
20260830223635 80 204 1.0 5.0 0.00 0.00 0.00 79 1016.7
20260830223414 81 217 0.0 2.0 0.00 0.00 0.00 79 1016.8
20260830222635 81 226 0.0 3.0 0.00 0.00 0.00 79 1016.8
20260830222135 82 226 0.0 4.0 0.00 0.00 0.00 77 1016.7
20260830221635 82 220 1.0 4.0 0.00 0.00 0.00 76 1016.5
20260830221135 83 358 1.0 2.0 0.00 0.00 0.00 77 1016.4
20260830220634 83 183 0.0 2.0 0.00 0.00 0.00 76 1016.3
20260830220134 83 183 0.0 2.0 0.00 0.00 0.00 76 1016.2
20260830215635 84 52 0.0 1.0 0.00 0.00 0.00 75 1016.2
20260830215134 84 52 0.0 2.0 0.00 0.00 0.00 75 1016.1
20260830214634 83 52 0.0 2.0 0.00 0.00 0.00 76 1016.1
20260830214412 83 56 0.0 1.0 0.00 0.00 0.00 77 1016.2
20260830213633 83 56 0.0 2.0 0.00 0.00 0.00 78 1016.2
20260830213410 83 56 0.0 2.0 0.00 0.00 0.00 76 1016.4
20260830212633 84 51 0.0 1.0 0.00 0.00 0.00 76 1016.3
20260830212129 84 51 0.0 1.0 0.00 0.00 0.00 75 1016.2
20260830211630 84 51 0.0 1.0 0.00 0.00 0.00 78 1016.1
20260830211406 84 51 0.0 3.0 0.00 0.00 0.00 77 1016.1
20260830210628 84 51 0.0 3.0 0.00 0.00 0.00 77 1016.2
20260830210128 84 128 0.0 1.0 0.00 0.00 0.00 76 1016.3
20260830205627 85 127 0.0 1.0 0.00 0.00 0.00 75 1016.3
20260830205126 84 127 0.0 1.0 0.00 0.00 0.00 75 1016.2
20260830204607 83 127 0.0 1.0 0.00 0.00 0.00 75 1016.3
20260830204105 83 127 0.0 1.0 0.00 0.00 0.00 76 1016.2
20260830203842 83 125 0.0 1.0 0.00 0.00 0.00 75 1016.3
20260830203108 84 125 0.0 3.0 0.00 0.00 0.00 74 1016.4
20260830202603 85 127 0.0 3.0 0.00 0.00 0.00 72 1016.5
20260830202341 86 234 0.0 3.0 0.00 0.00 0.00 71 1016.5
20260830201603 86 303 0.0 3.0 0.00 0.00 0.00 70 1016.6
20260830201103 87 303 1.0 3.0 0.00 0.00 0.00 67 1016.6
20260830200633 87 358 2.0 4.0 0.00 0.00 0.00 71 1016.6
20260830200623 88 224 1.0 4.0 0.00 0.00 0.00 69 1016.6
20260830195602 87 142 1.0 4.0 0.00 0.00 0.00 69 1016.5
20260830195338 87 75 1.0 4.0 0.00 0.00 0.00 66 1016.7
20260830194601 87 285 0.0 5.0 0.00 0.00 0.00 67 1016.7
20260830194058 88 243 2.0 5.0 0.00 0.00 0.00 64 1016.7
20260830193557 87 238 1.0 6.0 0.00 0.00 0.00 67 1016.7
20260830193058 87 228 2.0 6.0 0.00 0.00 0.00 66 1016.7
20260830192857 88 144 1.0 3.0 0.00 0.00 0.00 69 1016.8
20260830192853 87 265 1.0 4.0 0.00 0.00 0.00 69 1016.7
20260830191556 88 300 1.0 6.0 0.00 0.00 0.00 66 1016.8
20260830191055 88 285 2.0 6.0 0.00 0.00 0.00 67 1017.0
20260830190618 88 240 1.0 4.0 0.00 0.00 0.00 66 1017.2
20260830190610 87 331 1.0 3.0 0.00 0.00 0.00 68 1017.1
20260830185619 88 214 2.0 5.0 0.00 0.00 0.00 67 1017.6
20260830185610 89 0 2.0 5.0 0.00 0.00 0.00 64 1017.3
20260830184552 87 288 0.0 5.0 0.00 0.00 0.00 66 1017.6
20260830184050 88 251 2.0 4.0 0.00 0.00 0.00 66 1017.7
20260830183549 88 281 1.0 5.0 0.00 0.00 0.00 64 1017.8
20260830183050 87 104 1.0 5.0 0.00 0.00 0.00 69 1017.8
20260830182546 87 172 2.0 5.0 0.00 0.00 0.00 69 1017.9
20260830182325 87 83 2.0 5.0 0.00 0.00 0.00 68 1017.9
20260830181547 88 52 1.0 6.0 0.00 0.00 0.00 67 1018.0
20260830181048 86 282 2.0 6.0 0.00 0.00 0.00 72 1018.2
20260830180548 87 182 1.0 4.0 0.00 0.00 0.00 71 1018.3
20260830180046 87 302 1.0 4.0 0.00 0.00 0.00 68 1018.4
20260830175545 86 35 1.0 3.0 0.00 0.00 0.00 70 1018.5
20260830175044 86 237 1.0 4.0 0.00 0.00 0.00 72 1018.6
20260830174604 85 221 1.0 3.0 0.00 0.00 0.00 72 1018.8
20260830174556 86 219 3.0 4.0 0.00 0.00 0.00 71 1018.8
20260830173536 85 226 1.0 5.0 0.00 0.00 0.00 75 1018.8
20260830173314 84 210 1.0 5.0 0.00 0.00 0.00 74 1018.8
20260830172533 83 20 1.0 3.0 0.00 0.00 0.00 77 1019.0
20260830172034 82 11 1.0 3.0 0.00 0.00 0.00 78 1019.1
20260830171531 81 0 1.0 2.0 0.00 0.00 0.00 79 1019.2
20260830171032 82 0 1.0 2.0 0.00 0.00 0.00 77 1019.3
20260830170534 81 353 0.0 3.0 0.00 0.00 0.00 77 1019.4
20260830170031 82 0 0.0 4.0 0.00 0.00 0.00 76 1019.5
20260830165531 82 23 1.0 4.0 0.00 0.00 0.00 76 1019.5
20260830165031 82 8 1.0 3.0 0.00 0.00 0.00 76 1019.5
20260830164531 82 111 1.0 3.0 0.00 0.00 0.00 76 1019.5
20260830164033 83 219 0.0 6.0 0.00 0.00 0.00 74 1019.5
20260830163531 83 216 2.0 6.0 0.00 0.00 0.00 72 1019.6
20260830163055 85 120 1.0 3.0 0.00 0.00 0.00 72 1019.5
20260830163046 84 321 2.0 5.0 0.00 0.00 0.00 71 1019.5
20260830162031 84 241 0.0 3.0 0.00 0.00 0.00 75 1019.6
20260830161534 84 238 1.0 4.0 0.00 0.00 0.00 75 1019.6
20260830161030 85 243 1.0 5.0 0.00 0.00 0.00 75 1019.7
20260830160529 84 223 0.0 5.0 0.00 0.00 0.00 76 1019.7
20260830160026 82 63 1.0 3.0 0.00 0.00 0.00 76 1019.9
20260830160017 83 175 2.0 3.0 0.00 0.00 0.00 76 1019.7
20260830155004 82 266 2.0 3.0 0.00 0.00 0.00 77 1019.9
20260830154743 82 193 1.0 3.0 0.00 0.00 0.00 76 1019.8
20260830154004 83 289 1.0 3.0 0.00 0.00 0.00 78 1019.9
20260830153505 82 228 1.0 3.0 0.00 0.00 0.00 80 1019.9
20260830153246 83 71 1.0 5.0 0.00 0.00 0.00 76 1019.8
20260830152449 80 216 2.0 5.0 0.00 0.00 0.00 81 1019.9
20260830151946 80 210 2.0 6.0 0.00 0.00 0.00 81 1019.8
20260830151447 78 228 2.0 6.0 0.00 0.00 0.00 83 1019.8
20260830150946 78 237 1.0 5.0 0.00 0.00 0.00 83 1019.8
20260830150447 78 221 2.0 5.0 0.00 0.00 0.00 84 1019.8
20260830145944 78 183 0.0 2.0 0.00 0.00 0.00 86 1019.8
20260830145444 77 180 0.0 2.0 0.00 0.00 0.00 87 1019.8
20260830145007 76 282 0.0 5.0 0.00 0.00 0.00 88 1019.8
20260830144957 77 62 1.0 5.0 0.00 0.00 0.00 88 1019.8
20260830143941 76 358 1.0 2.0 0.00 0.00 0.00 88 1019.8
20260830143441 76 0 0.0 2.0 0.00 0.00 0.00 89 1019.8
20260830142935 76 0 0.0 2.0 0.00 0.00 0.00 89 1019.8
20260830142431 76 72 0.0 2.0 0.00 0.00 0.00 90 1019.9
20260830141931 76 87 0.0 1.0 0.00 0.00 0.00 90 1019.8
20260830141431 75 259 0.0 3.0 0.00 0.00 0.00 90 1019.8
20260830141238 75 141 0.0 2.0 0.00 0.00 0.00 91 1019.8
20260830141231 75 259 0.0 3.0 0.00 0.00 0.00 90 1019.8
20260830135931 74 141 0.0 3.0 0.00 0.00 0.00 90 1019.9
20260830135429 74 147 0.0 3.0 0.00 0.00 0.00 91 1019.9
20260830134930 74 62 0.0 3.0 0.00 0.00 0.00 91 1020.0
20260830134430 74 168 1.0 2.0 0.00 0.00 0.00 91 1020.1
20260830133930 74 117 0.0 3.0 0.00 0.00 0.00 91 1020.1
20260830133430 74 111 0.0 3.0 0.00 0.00 0.00 92 1020.2
20260830132929 74 217 1.0 3.0 0.00 0.00 0.00 92 1020.3
20260830132428 74 148 0.0 3.0 0.00 0.00 0.00 92 1020.3
20260830131928 74 142 1.0 3.0 0.00 0.00 0.00 92 1020.4
20260830131426 73 141 0.0 2.0 0.00 0.00 0.00 92 1020.4
20260830131204 73 140 0.0 3.0 0.00 0.00 0.00 92 1020.4
20260830130423 73 85 0.0 3.0 0.00 0.00 0.00 93 1020.4
20260830125922 73 72 1.0 3.0 0.00 0.00 0.00 93 1020.5
20260830125424 73 114 0.0 3.0 0.00 0.00 0.00 93 1020.4
20260830124924 73 206 0.0 3.0 0.00 0.00 0.00 94 1020.4
20260830124423 72 75 0.0 3.0 0.00 0.00 0.00 94 1020.5
20260830123922 72 173 0.0 2.0 0.00 0.00 0.00 94 1020.5
20260830123422 72 152 1.0 3.0 0.00 0.00 0.00 94 1020.5
20260830122922 72 300 1.0 3.0 0.00 0.00 0.00 94 1020.5
20260830122423 72 37 0.0 4.0 0.00 0.00 0.00 94 1020.6
20260830121923 72 37 0.0 4.0 0.00 0.00 0.00 95 1020.5
20260830121709 72 237 0.0 4.0 0.00 0.00 0.00 95 1020.5
20260830120922 71 44 0.0 4.0 0.00 0.00 0.00 95 1020.5
20260830120423 71 51 0.0 4.0 0.00 0.00 0.00 95 1020.5
20260830115921 71 137 0.0 2.0 0.00 0.00 0.00 95 1020.4
20260830115422 71 228 0.0 3.0 0.00 0.00 0.00 95 1020.3
20260830114921 71 293 0.0 3.0 0.00 0.00 0.00 95 1020.3
20260830114421 71 71 1.0 2.0 0.00 0.00 0.00 95 1020.3
20260830113920 71 71 1.0 7.0 0.00 0.00 0.00 95 1020.3
20260830113422 71 89 1.0 7.0 0.00 0.00 0.00 95 1020.4
20260830112920 71 233 0.0 3.0 0.00 0.00 0.00 95 1020.5
20260830112724 71 65 0.0 3.0 0.00 0.00 0.00 95 1020.5
20260830112437 71 228 1.0 3.0 0.00 0.00 0.00 95 1020.5
20260830111421 71 65 0.0 3.0 0.00 0.00 0.00 95 1020.6
20260830110920 71 89 0.0 3.0 0.00 0.00 0.00 95 1020.6
20260830110420 71 86 1.0 3.0 0.00 0.00 0.00 95 1020.6
20260830105920 71 85 0.0 2.0 0.00 0.00 0.00 95 1020.6
20260830105659 71 83 0.0 2.0 0.00 0.00 0.00 95 1020.7
20260830105204 71 83 0.0 2.0 0.00 0.00 0.00 94 1020.8
20260830104419 71 226 0.0 0.0 0.00 0.00 0.00 94 1020.6
20260830104201 71 226 0.0 1.0 0.00 0.00 0.00 94 1020.6
20260830103419 71 226 0.0 2.0 0.00 0.00 0.00 94 1020.5
20260830102944 71 230 1.0 4.0 0.00 0.00 0.00 94 1020.3
20260830102934 71 227 0.0 2.0 0.00 0.00 0.00 94 1020.5
20260830101919 71 85 0.0 4.0 0.00 0.00 0.00 94 1020.5
20260830101420 71 13 0.0 1.0 0.00 0.00 0.00 94 1020.3
20260830100918 71 13 0.0 1.0 0.00 0.00 0.00 94 1020.4
20260830100419 71 13 0.0 2.0 0.00 0.00 0.00 94 1020.4
20260830095918 71 13 0.0 2.0 0.00 0.00 0.00 94 1020.3
20260830095406 71 292 0.0 2.0 0.00 0.00 0.00 94 1020.4
20260830095144 71 327 0.0 3.0 0.00 0.00 0.00 94 1020.3
20260830094401 71 348 0.0 3.0 0.00 0.00 0.00 94 1020.3
20260830093900 71 337 0.0 0.0 0.00 0.00 0.00 94 1020.3
20260830093358 71 337 0.0 0.0 0.00 0.00 0.00 94 1020.3
20260830092856 71 337 0.0 4.0 0.00 0.00 0.00 94 1020.5
20260830092357 70 337 0.0 4.0 0.00 0.00 0.00 94 1020.3
20260830091854 70 56 0.0 0.0 0.00 0.00 0.00 94 1020.3
20260830091355 70 56 0.0 1.0 0.00 0.00 0.00 94 1020.2
20260830091134 70 56 0.0 1.0 0.00 0.00 0.00 94 1020.2
20260830090353 70 56 0.0 1.0 0.00 0.00 0.00 94 1020.4
20260830085849 70 56 0.0 1.0 0.00 0.00 0.00 94 1020.3
20260830085349 70 56 0.0 3.0 0.00 0.00 0.00 93 1020.3
20260830084850 70 56 0.0 3.0 0.00 0.00 0.00 93 1020.2
20260830084349 70 133 0.0 0.0 0.00 0.00 0.00 93 1020.2
20260830083835 70 133 0.0 0.0 0.00 0.00 0.00 93 1020.3
20260830083333 70 133 0.0 0.0 0.00 0.00 0.00 93 1020.3
20260830082832 70 133 0.0 0.0 0.00 0.00 0.00 93 1020.3
20260830082333 70 133 0.0 0.0 0.00 0.00 0.00 93 1020.3
20260830081818 70 133 0.0 0.0 0.00 0.00 0.00 93 1020.4
20260830081316 70 133 0.0 0.0 0.00 0.00 0.00 93 1020.4
20260830080816 70 133 0.0 0.0 0.00 0.00 0.00 93 1020.3
20260830080557 70 133 0.0 1.0 0.00 0.00 0.00 93 1020.3
20260830080055 69 133 0.0 1.0 0.00 0.00 0.00 93 1020.3
20260830075316 69 293 0.0 0.0 0.00 0.00 0.00 93 1020.3
20260830074815 69 293 0.0 0.0 0.00 0.00 0.00 93 1020.3
20260830074315 69 293 0.0 0.0 0.00 0.00 0.00 93 1020.3
20260830073815 69 293 0.0 0.0 0.00 0.00 0.00 93 1020.3
20260830073317 69 293 0.0 0.0 0.00 0.00 0.00 92 1020.4
20260830072815 69 293 0.0 0.0 0.00 0.00 0.00 92 1020.4
20260830072316 69 293 0.0 0.0 0.00 0.00 0.00 92 1020.4
20260830071815 69 293 0.0 0.0 0.00 0.00 0.00 92 1020.4
20260830071317 69 293 0.0 0.0 0.00 0.00 0.00 92 1020.4
20260830070816 69 293 0.0 0.0 0.00 0.00 0.00 91 1020.4
20260830070314 69 293 0.0 0.0 0.00 0.00 0.00 91 1020.6
20260830065814 69 293 0.0 0.0 0.00 0.00 0.00 91 1020.5
20260830065315 69 293 0.0 0.0 0.00 0.00 0.00 91 1020.6
20260830064815 69 293 0.0 0.0 0.00 0.00 0.00 90 1020.6
20260830064314 70 293 0.0 0.0 0.00 0.00 0.00 90 1020.6
20260830063815 70 293 0.0 0.0 0.00 0.00 0.00 90 1020.5
20260830063314 70 293 0.0 0.0 0.00 0.00 0.00 90 1020.6
20260830062815 70 293 0.0 0.0 0.00 0.00 0.00 90 1020.7
20260830062333 69 292 0.0 0.0 0.00 0.00 0.00 91 1020.7
20260830062326 69 293 0.0 0.0 0.00 0.00 0.00 91 1020.6
20260830061315 69 292 0.0 0.0 0.00 0.00 0.00 91 1020.8
20260830060814 69 292 0.0 0.0 0.00 0.00 0.00 91 1020.8
20260830060313 69 292 0.0 0.0 0.00 0.00 0.00 91 1020.9
20260830055814 69 292 0.0 0.0 0.00 0.00 0.00 91 1021.0
20260830055313 69 292 0.0 0.0 0.00 0.00 0.00 91 1021.1
20260830055054 69 292 0.0 0.0 0.00 0.00 0.00 91 1021.1
20260830054313 69 292 0.0 0.0 0.00 0.00 0.00 90 1021.1
20260830053813 69 292 0.0 0.0 0.00 0.00 0.00 90 1021.1
20260830053312 69 292 0.0 0.0 0.00 0.00 0.00 91 1021.1
20260830052813 69 292 0.0 0.0 0.00 0.00 0.00 91 1021.1
20260830052312 69 292 0.0 0.0 0.00 0.00 0.00 91 1021.1
20260830051812 69 292 0.0 0.0 0.00 0.00 0.00 91 1021.0
20260830051312 69 292 0.0 0.0 0.00 0.00 0.00 90 1021.0
20260830050812 69 292 0.0 0.0 0.00 0.00 0.00 90 1020.9
20260830050311 69 292 0.0 0.0 0.00 0.00 0.00 91 1021.0
20260830045812 69 292 0.0 0.0 0.00 0.00 0.00 91 1020.9
20260830045312 69 292 0.0 0.0 0.00 0.00 0.00 91 1020.9
20260830044812 69 292 0.0 0.0 0.00 0.00 0.00 91 1020.8
20260830044312 69 292 0.0 0.0 0.00 0.00 0.00 91 1020.8
20260830043809 69 292 0.0 0.0 0.00 0.00 0.00 91 1020.7
20260830043306 69 292 0.0 0.0 0.00 0.00 0.00 91 1020.8
20260830042806 69 292 0.0 0.0 0.00 0.00 0.00 91 1020.7
20260830042306 69 292 0.0 0.0 0.00 0.00 0.00 91 1020.7
20260830041803 69 292 0.0 0.0 0.00 0.00 0.00 92 1020.6
20260830041305 68 292 0.0 0.0 0.00 0.00 0.00 92 1020.7
20260830040804 68 292 0.0 0.0 0.00 0.00 0.00 92 1020.7
20260830040305 68 292 0.0 0.0 0.00 0.00 0.00 92 1020.7
20260830035803 68 292 0.0 0.0 0.00 0.00 0.00 92 1020.6
20260830035306 68 292 0.0 0.0 0.00 0.00 0.00 91 1020.5
20260830035041 68 292 0.0 0.0 0.00 0.00 0.00 92 1020.6
20260830034303 68 292 0.0 0.0 0.00 0.00 0.00 92 1020.6
20260830033802 68 292 0.0 0.0 0.00 0.00 0.00 92 1020.6
20260830033303 68 292 0.0 0.0 0.00 0.00 0.00 92 1020.5
20260830032803 68 292 0.0 0.0 0.00 0.00 0.00 91 1020.5
20260830032306 68 292 0.0 0.0 0.00 0.00 0.00 92 1020.6
20260830031804 68 292 0.0 0.0 0.00 0.00 0.00 92 1020.6
20260830031233 68 292 0.0 0.0 0.00 0.00 0.00 92 1020.7
20260830030734 68 292 0.0 0.0 0.00 0.00 0.00 91 1020.6
20260830030511 68 292 0.0 0.0 0.00 0.00 0.00 91 1020.6